www.pogodaiklimat.ru

Погода и климат >> Архив погоды >> Россия >> Чукотка >> Комсомольская


ПОГОДА в Комсомольской

  • Прогноз погоды в Комсомольской
  • Монитор погоды в Комсомольской

АРХИВ ПОГОДЫ в Комсомольской

Время (UTC), дата Ветер
(напр.,м/с)
 
Видим.   Явления Облачность Т
(С)
Тd
(С)
f
(%)
Тe
(С)
Тes
(С)
Комфортность P
(гПа)
Po
(гПа)
Тmin
(С)
Tmax
(С)
R
(мм)
R24
(мм)
S
(см)
09 13.04 С 1 н/о н/о -12.9 -15.6 80 -15 -15 1012.7 984.1 -6.3
12 13.04 штиль 0 н/о н/о -14.9 -17.4 81 -15 -15 1013.3 984.5
15 13.04 штиль 0 н/о н/о -14.6 -16.5 85 -15 -15 1013.3 984.5
18 13.04 штиль 0 н/о н/о -14.6 -16.9 83 -15 -15 1013.9 985.1
21 13.04 штиль 0 н/о н/о -10.1 -15.9 62 -10 -10 1013.7 985.4 -15.4
00 14.04 З 2 н/о н/о -10.8 -15.0 71 -15 -15 1014.7 986.3
03 14.04 З 1 н/о н/о -9.7 -14.9 66 -12 -12 1015.3 987.0
06 14.04 З 1 н/о н/о -10.1 -14.2 72 -12 -12 1015.8 987.4
09 14.04 штиль 0 н/о н/о -13.5 -15.7 83 -14 -14 1017.3 988.5 -7.2
12 14.04 В 1 н/о н/о -13.3 -16.5 77 -16 -16 1017.7 988.9
15 14.04 СВ 1 н/о н/о -12.9 -15.4 81 -15 -15 1018.0 989.3
18 14.04 штиль 0 н/о н/о -12.2 -15.0 80 -12 -12 1018.1 989.4
21 14.04 В 1 н/о н/о -9.0 -13.8 68 -11 -11 1018.1 989.8 -14.5
00 15.04 штиль 0 н/о н/о -5.3 -12.8 56 -6 -6 1017.9 990.0
03 15.04 ЮЗ 1 н/о н/о -6.9 -11.2 71 -9 -9 1017.8 989.7
06 15.04 СВ 1 н/о н/о -7.2 -11.4 72 -9 -9 1017.9 989.8
09 15.04 СВ 2 н/о н/о -9.1 -12.4 77 -14 -14 1018.7 990.4 -3.4
12 15.04 В 3 н/о н/о -9.8 -13.2 76 -16 -16 1018.6 990.2
15 15.04 В 5 н/о н/о -8.7 -12.6 73 -16 -16 1017.8 989.5
18 15.04 СВ 3 н/о н/о -9.4 -12.4 79 -15 -15 1017.5 989.1
21 15.04 В 5 н/о н/о -6.8 -11.1 71 -14 -14 1016.5 988.5 -11.0
00 16.04 В 6 н/о н/о -4.9 -10.5 65 -12 -12 1015.3 987.5
03 16.04 В 4 н/о н/о -4.1 -10.8 60 -10 -10 1014.0 986.3
06 16.04 В 5 н/о н/о -5.5 -11.4 63 -12 -12 1012.9 985.1
09 16.04 СВ 5 н/о н/о -8.9 -12.6 75 -17 -17 1013.1 984.9 -4.0
12 16.04 СВ 5 н/о н/о -10.5 -13.7 77 -18 -18 1013.1 984.8
15 16.04 СВ 2 н/о н/о -11.1 -15.4 70 -16 -16 1013.0 984.6
18 16.04 СВ 3 н/о н/о -10.2 -16.0 62 -16 -16 1013.1 984.8
21 16.04 СВ 2 н/о н/о -8.2 -13.9 63 -12 -12 1013.6 985.5 -12.3
00 17.04 З 1 н/о н/о -6.9 -11.9 67 -9 -9 1014.6 986.6
03 17.04 ЮЗ 1 н/о н/о -5.9 -10.7 69 -8 -8 1015.8 987.9
06 17.04 СЗ 3 н/о н/о -8.4 -12.5 72 -14 -14 1018.1 989.9
09 17.04 В 2 н/о н/о -13.8 -14.6 94 -19 -19 1021.2 992.2 -3.9
12 17.04 З 3 н/о н/о -15.0 -15.1 99 -22 -22 1023.0 993.9
15 17.04 СВ 1 н/о н/о -15.9 -16.2 98 -19 -19 1024.9 995.6
18 17.04 штиль 0 н/о н/о -15.4 -15.5 99 -15 -15 1025.8 996.5
21 17.04 ЮЗ 1 н/о н/о -13.8 -13.9 99 -16 -16 1026.5 997.4 -16.8
00 18.04 З 1 н/о н/о -13.4 -13.6 98 -16 -16 1025.9 996.9
03 18.04 В 2 н/о н/о -11.5 -12.1 95 -16 -16 1024.0 995.2
06 18.04 ЮВ 1 н/о н/о -10.2 -12.2 85 -12 -12 1022.1 993.6
09 18.04 В 2 н/о н/о -9.0 -13.6 69 -13 -13 1021.0 992.6 -6.6
12 18.04 СВ 2 н/о н/о -11.7 -15.2 75 -16 -16 1019.5 990.9
15 18.04 В 1 н/о н/о -9.6 -15.2 64 -12 -12 1017.1 988.8
18 18.04 В 1 н/о н/о -9.7 -14.4 69 -12 -12 1015.1 986.8
21 18.04 В 2 н/о н/о -7.8 -12.4 69 -12 -12 1013.8 985.7 -11.9
00 19.04 ЮЗ 3 н/о н/о -7.2 -10.5 77 -13 -13 1012.9 984.9
03 19.04 Ю 5 н/о н/о -6.9 -6.9 100 -15 -15 1012.7 984.8

 

Местоположение метеостанции Комсомольская (Чукотка, Россия): широта 69.13 долгота 172.82 высота над уровнем моря 219 м.

В архиве по умолчанию представлена погода в Комсомольской за последнюю неделю. Архивные данные за месяц целиком и за предыдущие месяцы, начиная с января 2011 года, Вы можете получить, выбрав интересующий диапазон дат из раскрывающегося списка и нажав кнопку "Ввод!".


*Определитесь, кто Вы:
робот инопланетянин человек

Внимание! Время в таблицах - всемирное. Для получения местного времени необходимо прибавить поправку, которая равна 12 ч.

Смотрите также архив погоды в соседних городах и на ближайших метеорологических станциях:

Погода в Паляваам-Глубокой (Чукотка, Россия) (50 км)
Погода в Майской (Чукотка, Россия) (68 км)
Погода в Чауне (Чукотка, Россия) (89 км)
Погода на 21 км (Чукотка, Россия) (96 км)
Погода в Певеке (Чукотка, Россия) (120 км)
Погода в Валькаркае (Чукотка, Россия) (129 км)
Погода на Мысе Биллингс (Чукотка, Россия) (140 км)
Погода на Айон Острове (Чукотка, Россия) (211 км)
Погода в Раучуе (Чукотка, Россия) (252 км)
Погода в Билибино (Чукотка, Россия) (287 км)

Пояснения к столбцам:

Ветер - указаны скорость ветра в м/с - средняя за 10 мин, порывы в срок и между сроками (в фигурных скобках) и направление, откуда дует ветер: С - северный, СВ - северо-восточный, В - восточный, ЮВ - юго-восточный, Ю - южный, ЮЗ - юго-западный, З - западный, СЗ - северо-западный.
Видимость - горизонтальная дальность видимости в метрах или километрах. При видимости от 1 до 10 км при отсутствии осадков обычно наблюдается дымка, при ухудшении видимости до 1 км и менее - туман. В сухую погоду видимость может ухудшаться дымом, пылью или мглою.
Явления - указаны атмосферные явления, наблюдавшиеся в срок или в последний час перед сроком; фигурными скобками обозначены явления, наблюдавшиеся между сроками (за 1-3 часа до срока); квадратными скобками обозначены град или гололедные отложения с указанием их диаметра в мм.
Облачность - указаны через наклонную черту общая и нижняя облачность в баллах и высота нижней границы облаков в метрах; квадратными скобками обозначены формы облаков: Ci - перистые, Cs - перисто-слоистые, Cc - перисто-кучевые, Ac - высококучевые, As - высокослоистые, Sc - слоисто-кучевые, Ns - слоисто-дождевые, Cu - кучевые, Cb - кучево-дождевые. Подробнее классификацию облаков см. в Атласе облаков (PDF).
T - Температура воздуха - температура, измеренная на высоте 2 м над землей.
Td - Температура точки росы - температура, при понижении до которой содержащийся в воздухе водяной пар достигнет насыщения.
f - Относительная влажность воздуха - влажноcть воздуха, измеренная на высоте 2 м над землей.
Te - Эффективная температура - температура, которую ощущает одетый по сезону человек в тени. Характеристика душности погоды. При расчете учитывается влияние влажности воздуха и скорости ветра на теплоощущения человека.
Tes - Эффективная температура на солнце - температура, которую ощущает человек, с поправкой на солнечный нагрев. Характеристика знойности погоды. Зависит от высоты солнца над горизонтом, облачности и скорости ветра. Ночью, в пасмурную погоду, а также при ветре 12 м/с и более поправка равна нулю.
P - Атмосферное давление - приведенное к уровню моря атмосферное давление.
Po - Атмосферное давление - измеренное на уровне метеостанции атмосферное давление.
Tmin - Минимальная температура - минимум температуры воздуха на высоте 2 м над землей.
Tmax - Максимальная температура - максимум температуры воздуха на высоте 2 м над землей.
R - Количество осадков - Количество выпавших осадков за период времени, мм. При наведении курсора мыши на число - период времени, за который выпало указанное количество осадков.
R24 - Количество осадков - Количество выпавших осадков за 24 часа, мм.
S - Снежный покров - Высота снежного покрова, см. При наведении курсора мыши на число - состояние снежного покрова и степень покрытия местности в баллах.